Location: �terpigny
(49.8910°N, 2.9249°E)
Time: 02:40:38
(UTC+00:00)

Lacrosse 4 Rocket - Pass Details

Date: 24 October 2021
Orbit: 537 x 619 km, 68.0° (Epoch: 05 December)

Event Time Altitude Azimuth Distance (km) Brightness Sun altitude
Rises 17:25:43 0° 328° (NNW) 2,801 5.3 -8.1°
Reaches altitude 10° 17:27:59 10° 333° (NNW) 1,912 4.3 -8.4°
Maximum altitude 17:32:12 54° 51° (NE) 730 1.6 -9.1°
Drops below altitude 10° 17:36:30 10° 129° (SE) 1,948 3.7 -9.8°
Enters shadow 17:38:31 - 134° (SE) 2,745 4.5 -10.1°
